Cloud_Cover
33 100 90 95 70 100 100 99 38 7 5 41 14 84 100 56 33 5 5 5 5 37 95 100 100 100 100 100 100 100 26 5 58 8 5 5 4 7 6 14 14 5 0
62 100 100 100 100 100 69 36 5 18 88 44 5 1 5 24 85 95 31 5 28 22 6 32 100 100 100 100 100 41 5 67 32 5 4 12 15 11 18 62 86 36 64
100 100 100 100 65 8 0 0 5 32 8 0 0 0 0 4 5 5 5 5 83 87 42 90 99 100 85 19 16 96 69 7 5 5 5 83 4 4 5 5 62 78 56
100 94 20 19 16 6 5 5 0 0 0 0 0 0 0 0 0 5 2 3 5 34 12 44 73 92 79 72 8 5 5 0 0 0 0 4 24 5 32 5 5 5 5
96 71 27 63 31 16 5 5 5 2 0 0 0 0 0 0 0 0 0 0 0 0 0 0 1 1 1 4 5 4 0 0 0 0 0 2 5 55 78 25 5 5 5
23 85 69 15 5 5 5 5 5 5 11 5 0 0 0 0 0 0 0 0 0 0 0 0 0 0 0 0 4 5 5 5 5 5 5 5 5 5 5 43 24 5 4
8 87 79 7 5 5 12 14 26 4 1 0 0 0 0 0 0 0 0 1 0 0 0 0 0 0 2 0 0 0 0 0 3 5 5 5 3 2 0 5 5 5 6
5 5 5 2 0 0 0 0 0 0 0 0 0 0 11 7 5 1 0 0 0 0 0 0 0 3 3 3 0 2 2 0 0 2 3 5 5 5 5 16 90 100 100
0 0 0 0 0 0 0 0 0 0 0 0 0 0 0 0 0 4 2 0 0 0 0 3 2 3 4 3 2 5 5 5 5 5 5 5 5 5 5 10 100 100 100
0 0 0 0 0 0 0 0 0 0 0 0 0 0 0 0 0 0 1 1 4 5 5 0 0 2 1 1 4 4 5 5 4 4 5 5 5 5 5 8 100 86 98
0 0 0 0 0 0 0 0 0 0 0 0 0 0 0 0 0 0 0 0 0 5 5 0 0 2 5 5 5 5 5 4 5 5 5 5 10 40 38 62 83 100 100
0 1 0 0 0 0 0 0 0 0 0 0 0 0 0 0 0 0 0 0 0 0 0 1 2 2 1 0 0 0 0 4 2 5 5 5 94 88 99 100 100 100 100
4 5 0 0 0 0 0 2 5 0 4 3 0 0 0 0 0 0 0 0 0 0 0 0 0 0 0 0 0 0 0 0 1 5 5 6 48 80 99 100 100 100 100
0 0 0 0 0 5 5 4 4 5 5 5 5 5 4 2 0 0 0 0 0 0 0 0 0 0 0 0 0 0 0 0 5 5 61 83 84 100 100 100 100 100 100
0 0 5 5 5 5 5 5 5 5 44 5 5 5 5 5 5 0 0 0 0 5 1 0 0 4 3 0 0 0 1 2 5 38 77 100 100 100 100 100 100 100 100
4 5 5 5 3 4 5 5 5 5 5 5 5 5 5 3 0 0 0 0 0 4 16 2 1 4 0 1 0 5 5 5 5 33 100 100 100 100 100 100 100 100 100
1 1 5 5 5 5 5 5 5 5 5 5 5 5 2 0 0 0 0 0 5 6 80 4 2 0 4 5 5 5 76 94 70 11 96 100 100 100 100 100 100 100 100
4 4 5 5 15 5 5 14 5 5 5 5 0 0 0 0 4 0 0 5 5 5 92 70 5 5 5 5 59 100 13 36 5 2 19 100 100 100 100 100 100 100 100
5 8 27 50 55 68 54 52 26 5 0 0 0 1 4 0 0 1 5 5 40 91 96 87 6 5 5 51 100 22 4 0 0 1 85 100 100 100 100 100 100 100 100
52 63 19 55 66 52 38 20 5 5 5 0 5 0 0 0 1 6 6 86 97 26 5 13 92 76 83 97 61 17 2 2 3 45 83 53 96 100 100 100 100 100 100
39 44 96 95 21 5 5 5 5 5 4 4 0 0 4 5 5 81 100 100 96 84 99 100 68 64 100 29 5 5 5 10 96 74 7 5 72 37 5 6 5 37 100
86 100 91 43 5 65 5 5 5 5 0 0 0 5 5 5 5 100 92 100 100 100 100 93 100 78 11 44 5 100 100 94 53 100 72 100 100 70 41 44 53 100 100
96 100 73 63 96 5 5 5 4 3 1 4 5 5 5 5 76 28 22 82 26 48 100 95 19 37 99 88 100 99 95 100 100 95 97 97 47 99 36 5 17 99 100
96 95 100 56 5 5 5 1 5 5 4 0 0 5 5 5 5 100 88 92 100 50 5 4 96 99 100 99 100 100 100 100 98 47 99 100 5 64 5 5 9 52 97
100 87 7 6 23 5 5 5 5 5 5 5 5 16 75 6 28 100 100 93 86 11 0 49 100 68 48 99 100 100 100 100 100 99 100 100 42 96 97 22 5 6 100
44 5 78 30 5 5 5 5 33 5 5 5 24 66 32 79 100 100 100 64 27 8 100 88 100 100 100 100 100 100 100 100 100 100 100 100 100 96 100 5 5 45 100